Flag for Greece Weather past 2 weeks in Corfu, Greece

55 °F

Partly cloudy.

Feels Like: 55 °F
Forecast: 55 / 61 °F
Wind: No wind

Location: Kerkyra Airport

Current Time: Nov 28, 2015 at 7:40:31 PM

Latest Report: Nov 28, 2015 at 6:50 PM

Visibility: N/A

Pressure: 29.92 "Hg

Humidity: 82%

Dew point: 50 °F

Location of CorfuLocation

Historic Weather in Corfu — Graph


Corfu temperature yesterday

Maximum temperature yesterday: 61 °F (at 3:20 PM)
Minimum temperature yesterday: 52 °F (at 9:20 PM)
Average temperature yesterday: 57 °F

Past Weeks' High & Low Weather Summary

High73 °F (Nov 15, 3:50 PM)100% (Nov 13, 7:50 PM)30.30 "Hg (Nov 13, 7:50 PM)
Low52 °F (Nov 17, 3:50 AM)59% (Nov 28, 3:50 PM)29.45 "Hg (Nov 26, 4:50 PM)
Average61 °F84%29.91 "Hg
* Reported Nov 13 6:20 PM — Nov 28 6:20 PM, Corfu, Weather by CustomWeather, © 2015

Note: Actual official high and low records may vary slightly from our data, if they occured in-between our weather recording intervals... More about our weather records


Corfu weather history for previous 24 hours

Time TempWeatherWind HumidityBarometerVisibility
6:20 PM
Sat, Nov 28
55 °FPartly cloudy.3 mph82%29.86 "HgN/A
5:50 PM55 °FPartly cloudy.3 mph82%29.86 "HgN/A
5:20 PM59 °FPartly cloudy.3 mph68%29.86 "HgN/A
4:50 PM59 °FBroken clouds.5 mph68%29.86 "HgN/A
4:20 PM59 °FBroken clouds.8 mph63%29.86 "HgN/A
3:50 PM61 °FScattered clouds.9 mph59%29.86 "HgN/A
3:20 PM59 °FScattered clouds.7 mph72%29.83 "HgN/A
2:50 PM59 °FScattered clouds.7 mph72%29.83 "HgN/A
2:20 PM59 °FScattered clouds.9 mph82%29.83 "HgN/A
1:50 PM59 °FLight rain. Scattered clouds.9 mph82%29.83 "HgN/A
1:20 PM61 °FLight rain. Scattered clouds.5 mph77%29.83 "HgN/A
12:50 PM59 °FScattered clouds.3 mph82%29.80 "HgN/A
12:20 PM57 °FScattered clouds.3 mph88%29.80 "HgN/A
11:50 AM57 °FScattered clouds.5 mph88%29.80 "HgN/A
11:20 AM59 °FBroken clouds.2 mph82%29.77 "HgN/A
10:50 AM57 °FBroken clouds.No wind88%29.77 "HgN/A
10:20 AM55 °FLight rain. Broken clouds.3 mph88%29.77 "HgN/A
9:50 AM54 °FLight rain. Broken clouds.6 mph94%29.74 "Hg5 mi
9:20 AM54 °FLight rain. Broken clouds.8 mph94%29.74 "HgN/A
8:50 AM54 °FLight rain. Broken clouds.6 mph94%29.74 "HgN/A
8:20 AM54 °FRain. Broken clouds.5 mph94%29.71 "Hg4 mi
7:20 AM54 °FPartly cloudy.7 mph94%29.68 "HgN/A
6:50 AM52 °FLight rain. Partly cloudy.7 mph100%29.68 "Hg5 mi
6:20 AM54 °FLight rain. Partly cloudy.9 mph82%29.65 "Hg4 mi
5:50 AM54 °FRain. Partly cloudy.10 mph82%29.65 "Hg4 mi
5:20 AM54 °FPartly cloudy.13 mph77%29.62 "HgN/A
4:50 AM54 °FPartly cloudy.10 mph77%29.62 "HgN/A
4:20 AM52 °FPartly cloudy.8 mph88%29.62 "HgN/A
3:50 AM52 °FPartly cloudy.9 mph88%29.62 "HgN/A
3:20 AM52 °FPartly cloudy.9 mph88%29.62 "HgN/A
2:50 AM52 °FPartly cloudy.12 mph88%29.62 "HgN/A
2:20 AM52 °FThunderstorms. Partly cloudy.6 mph88%29.62 "Hg4 mi
1:50 AM52 °FThunderstorms. Partly cloudy.5 mph88%29.62 "Hg4 mi
1:20 AM54 °FThunderstorms. Partly cloudy.3 mph88%29.62 "HgN/A
12:50 AM54 °FThunderstorms. Partly cloudy.7 mph88%29.62 "HgN/A
12:20 AM55 °FThunderstorms. Partly cloudy.9 mph82%29.62 "Hg4 mi
11:50 PM
Fri, Nov 27
55 °FThunderstorms. Partly cloudy.6 mph82%29.62 "Hg4 mi
11:20 PM55 °FThunderstorms. Partly cloudy.5 mph82%29.62 "Hg4 mi
10:50 PM55 °FThunderstorms. Partly cloudy.12 mph82%29.59 "Hg4 mi
10:20 PM55 °FThunderstorms. Partly cloudy.20 mph82%29.59 "Hg4 mi
9:50 PM55 °FPartly cloudy.10 mph82%29.59 "HgN/A
9:20 PM52 °FPartly cloudy.6 mph88%29.59 "HgN/A
8:50 PM54 °FThundershowers. Partly cloudy.3 mph88%29.59 "HgN/A
8:20 PM55 °FThundershowers. Partly cloudy.5 mph77%29.56 "HgN/A
7:50 PM55 °FThunderstorms. Partly cloudy.9 mph82%29.56 "HgN/A
7:20 PM57 °FThundershowers. Partly cloudy.13 mph94%29.56 "Hg6 mi
Weather by CustomWeather, © 2015

See weather overviewHow to use our weather pages